Location: Unspecified
(0.0000°N, 0.0000°E)
Time: 01:55:59
(UTC+00:00)

Explorer 11/Cluster Stage 4 - All Passes

Search period start: 26 September 2016 00:00
Search period end: 06 October 2016 00:00
Orbit: 467 x 1265 km, 28.8° (Epoch: 25 September)

Date Brightness Start Highest point End Pass type
(mag) Time Alt. Az. Time Alt. Az. Time Alt. Az.
26 Sep - 05:09:16 10° NNW 05:14:20 20° NNE 05:18:48 10° ENE visible
26 Sep - 06:57:22 10° NW 07:03:57 62° NNE 07:09:09 10° ESE daylight
26 Sep - 08:47:53 10° W 08:52:30 27° SSW 08:56:23 10° SSE daylight
26 Sep - 17:56:59 10° SSW 18:01:09 29° SSE 18:06:09 10° E daylight
26 Sep - 19:44:20 10° WSW 19:49:47 62° NNW 19:56:38 10° NE visible
26 Sep - 21:34:47 10° WNW 21:39:29 20° NNW 21:44:46 10° NNE visible
27 Sep - 04:58:48 10° NNW 05:04:40 24° NNE 05:09:49 10° ENE visible
27 Sep - 06:47:18 10° NW 06:54:13 78° NNE 06:59:40 10° ESE daylight
27 Sep - 08:38:22 10° W 08:42:47 22° SSW 08:46:33 10° SSE daylight
27 Sep - 17:47:12 10° SSW 17:51:24 35° SSE 17:56:32 10° E daylight
27 Sep - 19:34:56 10° WSW 19:40:04 49° NNW 19:46:30 10° NE visible
27 Sep - 21:25:57 10° WNW 21:29:52 16° NNW 21:34:11 10° NNE visible
28 Sep - 03:02:07 10° N 03:04:26 11° NNE 03:06:42 10° NNE visible
28 Sep - 04:48:26 10° NNW 04:54:58 29° NNE 05:00:40 10° E visible
28 Sep - 06:37:17 10° WNW 06:44:27 86° SSW 06:50:07 10° ESE daylight
28 Sep - 08:28:57 10° WSW 08:33:03 19° SSW 08:36:37 10° SSE daylight
28 Sep - 17:37:29 10° SW 17:41:41 43° SSE 17:46:50 10° ENE daylight
28 Sep - 19:25:36 10° W 19:30:24 38° NNW 19:36:19 10° NE visible
28 Sep - 21:17:25 10° NW 21:20:16 13° NNW 21:23:21 10° N visible
29 Sep - 02:51:08 10° N 02:54:49 13° NNE 02:58:23 10° NE visible
29 Sep - 04:38:08 10° NW 04:45:13 35° NNE 04:51:22 10° E visible
29 Sep - 06:27:20 10° WNW 06:34:38 71° SSW 06:40:29 10° SE daylight
29 Sep - 08:19:38 10° WSW 08:23:19 16° SSW 08:26:37 10° S daylight
29 Sep - 17:27:49 10° SW 17:31:58 55° SSE 17:37:07 10° ENE daylight
29 Sep - 19:16:23 10° W 19:20:45 30° NNW 19:26:04 10° NE visible
29 Sep - 21:09:56 10° NNW 21:10:44 10° NNW 21:11:33 10° N visible
30 Sep - 02:40:32 10° NNW 02:45:10 16° NNE 02:49:39 10° NE visible
30 Sep - 04:27:53 10° NW 04:35:26 42° NNE 04:41:59 10° E visible
30 Sep - 06:17:25 10° WNW 06:24:48 59° SSW 06:30:48 10° SE daylight
30 Sep - 08:10:27 10° WSW 08:13:37 14° SSW 08:16:29 10° S daylight
30 Sep - 17:18:13 10° SW 17:22:18 72° SSE 17:27:19 10° ENE daylight
30 Sep - 19:07:17 10° WNW 19:11:09 23° NNW 19:15:44 10° NNE visible
01 Oct - 02:30:04 10° NNW 02:35:27 19° NNE 02:40:42 10° ENE visible
01 Oct - 04:17:42 10° NW 04:25:36 51° NNE 04:32:30 10° ESE visible
01 Oct - 06:07:33 10° WNW 06:14:55 50° SSW 06:21:02 10° SE daylight
01 Oct - 08:01:27 10° SW 08:03:54 12° SSW 08:06:11 10° S daylight
01 Oct - 15:22:44 10° S 15:24:27 13° SSE 15:26:15 10° ESE daylight
01 Oct - 17:08:41 10° WSW 17:12:39 85° NNW 17:17:28 10° ENE daylight
01 Oct - 18:58:20 10° WNW 19:01:35 18° NNW 19:05:16 10° NNE visible
02 Oct - 02:19:42 10° NNW 02:25:42 22° NNE 02:31:35 10° ENE visible
02 Oct - 04:07:35 10° NW 04:15:43 61° NNE 04:22:56 10° ESE visible
02 Oct - 05:57:45 10° W 06:05:03 43° SSW 06:11:13 10° SE daylight
02 Oct - 07:52:54 10° SW 07:54:13 11° SSW 07:55:29 10° SSW daylight
02 Oct - 15:12:28 10° S 15:14:50 16° SSE 15:17:19 10° ESE daylight
02 Oct - 16:59:12 10° WSW 17:03:02 62° NNW 17:07:34 10° NE daylight
02 Oct - 18:49:43 10° NW 18:52:02 13° NNW 18:54:34 10° N visible
03 Oct - 02:09:26 10° NNW 02:15:54 25° NNE 02:22:19 10° ENE visible
03 Oct - 03:57:31 10° NW 04:05:48 72° NNE 04:13:17 10° ESE visible
03 Oct - 05:48:01 10° W 05:55:10 37° SSW 06:01:20 10° SSE daylight
03 Oct - 15:02:24 10° SSW 15:05:13 21° SSE 15:08:09 10° E daylight
03 Oct - 16:49:48 10° WSW 16:53:25 44° NNW 16:57:37 10° NE daylight
04 Oct - 01:59:13 10° NNW 02:06:04 29° NNE 02:12:56 10° E visible
04 Oct - 03:47:30 10° WNW 03:55:51 84° NNE 04:03:33 10° ESE visible
04 Oct - 05:38:22 10° W 05:45:17 32° SSW 05:51:24 10° SSE daylight
04 Oct - 14:52:27 10° SSW 14:55:36 28° SSE 14:58:51 10° E daylight
04 Oct - 16:40:29 10° W 16:43:50 31° NNW 16:47:37 10° NE daylight
05 Oct - 00:03:46 10° N 00:05:59 11° NNE 00:08:16 10° NE night (unlit)
05 Oct - 01:49:04 10° NNW 01:56:11 34° NNE 02:03:27 10° E visible
05 Oct - 03:37:33 10° WNW 03:45:54 84° SSW 03:53:45 10° ESE visible
05 Oct - 05:28:47 10° W 05:35:25 27° SSW 05:41:24 10° SSE daylight
05 Oct - 14:42:35 10° SW 14:46:00 38° SSE 14:49:27 10° E daylight
05 Oct - 16:31:17 10° W 16:34:15 23° NNW 16:37:31 10° NNE daylight
05 Oct - 23:53:08 10° N 23:56:17 13° NNE 23:59:36 10° NE night (unlit)
